Location: Unspecified
(42.3650°N, 71.1030°W)
Time: 15:38:27
(UTC+00:00)

Tiros 1 - Pass Details

Date: 25 June 2024
Orbit: 624 x 656 km, 48.4° (Epoch: 13 July)

Event Time Altitude Azimuth Distance (km) Brightness Sun altitude
Rises 09:50:52 0° 293° (WNW) 2,922 10.1 5.9°
Reaches altitude 10° 09:53:18 10° 286° (WNW) 2,016 9.3 6.3°
Maximum altitude 09:57:36 38° 218° (SW) 968 7.7 7.0°
Drops below altitude 10° 10:01:55 10° 151° (SSE) 2,027 9.8 7.7°
Sets 10:04:22 0° 143° (SE) 2,939 10.7 8.1°
